Location: Pic du Midi - T1M
(42.9366°N, 0.1426°E)
Time: 12:52:04
(UTC+01:00)

X-37B - Visible Passes

Search period start: 18 June 2021 00:00
Search period end: 28 June 2021 00:00
Orbit: 386 x 389 km, 45.0° (Epoch: 10 June)

Date Brightness Start Highest point End Pass type
(mag) Time Alt. Az. Time Alt. Az. Time Alt. Az.
18 Jun 2.7 01:48:20 21° ENE 01:48:20 21° ENE 01:49:32 10° ENE visible
18 Jun 1.2 03:20:36 14° WNW 03:23:10 56° N 03:26:17 10° E visible
19 Jun 1.1 02:24:37 56° NNW 02:24:44 57° N 02:27:51 10° ENE visible
19 Jun 0.6 03:58:22 10° WNW 04:01:32 81° NNE 04:04:42 10° ESE visible
20 Jun 3.2 01:28:47 15° ENE 01:28:47 15° ENE 01:29:27 10° ENE visible
20 Jun 1.0 03:01:03 19° WNW 03:03:08 63° N 03:06:15 10° E visible
20 Jun 0.9 04:36:42 10° W 04:39:44 43° SSW 04:42:44 10° SE visible
21 Jun 1.8 02:05:32 40° ENE 02:05:32 40° ENE 02:07:49 10° E visible
21 Jun 0.4 03:38:16 10° WNW 03:41:26 70° SSW 03:44:34 10° ESE visible
22 Jun 0.5 02:43:04 81° NNE 02:43:04 81° NNE 02:46:13 10° ESE visible
22 Jun 1.6 04:16:49 10° W 04:19:30 25° SSW 04:22:11 10° SSE visible
22 Jun 1.0 22:28:18 10° SW 22:31:16 38° SSE 22:31:22 38° SSE visible
23 Jun 1.4 03:22:08 33° SSE 03:22:08 33° SSE 03:24:16 10° SE visible
23 Jun 1.8 21:30:28 10° SSW 21:33:02 23° SSE 21:35:37 10° E visible
23 Jun 0.5 23:06:16 10° WSW 23:09:27 86° NNW 23:10:08 51° ENE visible
24 Jun 0.5 22:07:58 10° WSW 22:11:05 64° SSE 22:14:14 10° ENE visible
24 Jun 1.3 23:44:40 10° W 23:47:29 53° NNW 23:47:29 53° NNW visible
25 Jun 0.9 22:46:13 10° W 22:49:22 66° N 22:51:53 15° ENE visible
26 Jun 2.9 00:23:03 10° WNW 00:24:10 20° WNW 00:24:10 20° WNW visible
26 Jun 0.6 21:47:48 10° WSW 21:50:58 86° NNW 21:54:08 10° ENE visible
26 Jun 1.2 23:24:39 10° WNW 23:27:46 56° N 23:28:17 48° NE visible
27 Jun 1.2 22:26:12 10° W 22:29:20 57° N 22:32:17 11° ENE visible
